Location: Fernhill
(41.0167°S, 175.6333°E)
Time: 17:26:24
(UTC+00:00)

Meteor 2-6 Rocket - Pass Details

Date: 26 February 2026
Orbit: 804 x 913 km, 81.3° (Epoch: 8 March)

Event Time Altitude Azimuth Distance (km) Brightness Sun altitude
Exits shadow 07:59:12 13° 62° (ENE) 2,342 5.8 -10.5°
Maximum altitude 08:02:06 19° 96° (E) 2,045 5.7 -11.1°
Drops below altitude 10° 08:06:02 10° 137° (SE) 2,618 6.6 -11.7°
Sets 08:09:17 0° 154° (SSE) 3,578 7.4 -12.3°
